Regional Weather Roundup
Issued by NWS Newport/Morehead, NC

Current Version | Previous Version | Graphics & Text | Print | Product List | Glossary Off
Versions: 1 2 3 4 5 6 7 8 9 10 11 12 13 14 15 16 17 18 19 20 21 22 23 24 25 26 27 28 29 30 31 32 33 34 35 36 37 38 39 40 41 42 43 44 45 46 47 48 49 50

000
ASUS42 KMHX 230713
RWRMHX
WEATHER ROUNDUP FOR EASTERN NORTH CAROLINA
NATIONAL WEATHER SERVICE NEWPORT/MOREHEAD CITY NC
300 AM EDT SAT SEP 23 2017

NOTE: "FAIR" INDICATES FEW OR NO CLOUDS BELOW 12,000 FEET
WITH NO SIGNIFICANT WEATHER AND/OR OBSTRUCTIONS TO VISIBILITY

NCZ015>017-031-032-045>047-102-103-230800-
NORTH COAST

CITY           SKY/WX    TMP DP  RH WIND       PRES   REMARKS
EDENTON        CLEAR     67  65  93 CALM      30.02F
ELIZABETH CITY CLEAR     64  64 100 CALM      30.01F FOG
KITTY HAWK     SUNNY     68  62  81 CALM      30.00S
MANTEO         PTCLDY    65  64  98 CALM      30.01S

$$

NCZ045>047-081-094-103-104-230800-
CENTRAL COAST

CITY           SKY/WX    TMP DP  RH WIND       PRES   REMARKS
FRISCO         PTCLDY    71  71 100 CALM      30.00F FOG

$$

NCZ095-097-098-100-101-230800-
SOUTHERN COAST

CITY           SKY/WX    TMP DP  RH WIND       PRES   REMARKS
BEAUFORT       PTCLDY    73  71  93 CALM      30.00F
CEDAR ISLAND   NOT AVBL
JACKSONVILLE   CLEAR     69  69 100 CALM      30.00F
PINEY ISLAND     N/A    N/A N/A N/A S3        30.00F
WILMINGTON     CLEAR     69  68  96 CALM      30.01S


$$

NCZ011>013-027>030-043-044-078>080-089-090>093-098-230800-
COASTAL PLAIN

CITY           SKY/WX    TMP DP  RH WIND       PRES   REMARKS
AHOSKIE        PTCLDY    62  62 100 CALM      30.02F
CLINTON        CLEAR     68  68 100 CALM      30.02S
ELIZABETHTOWN  NOT AVBL
GOLDSBORO      CLEAR     67  67 100 CALM      30.00F
GREENVILLE     FOG       64  64 100 CALM      30.03S VSB 1
HAVELOCK       CLEAR     70  70 100 CALM      30.02S FOG
KENANSVILLE      N/A     66  64  94 CALM      30.03R FOG
KINSTON        PTCLDY    65  64  96 CALM      30.02S
NEW BERN         N/A     69  68  96 CALM      30.02S
RICHLANDS      CLEAR     65  65 100 N3        30.02S
ROCKY MOUNT    FOG       64  64 100 CALM      30.03S VSB 1/4
WASHINGTON     PTCLDY    68  67  96 CALM      30.02R
WHITEVILLE     CLEAR     68  67  97 CALM      30.01S FOG

$$

AMZ130-135-150-152-154-156-158-170-250-252-270-ANZ085-086-088-633-658-670-230800-
MARINE OBSERVATIONS

STATION/POSITION TIME  TEMP    WIND        PRES    WAVE   SWELL
                       AIR SEA DIR/SP/G            HT/PER HT/PER
                 (UTC) (F)     (DEG/KT/KT) (MB)    (FT/S) (FT/S)
CHESAPEAKE LIGHT NOT AVBL
64 E VA BEACH    0650   70 69  250/  6/ 10 1015.9    9/11  10/11
DUCK             0648          260/  2/  3 1015.6
2 E DUCK         0630      76                N/A     5/11   3/11
OREGON INLET     0636          110/  1/  2 1015.9
13E OREGON INLT  0648      75                N/A     7/11   7/11
HATTERAS CG      0648          230/  3/  4 1015.8
DIAMOND BUOY     0650   77 77  310/  4/  4 1015.9    8/15   8/15
CAPE LOOKOUT     0700   77     260/  2/  3 1015.6
BEAUFORT LAB     0648          260/  2/  4 1015.4
30 SE NEW RVR IN 0608   80     210/  2/  4 1016.0
30 SE NEW RVR IN NOT AVBL
27 SE WRIGHTSVLE 0608   80 80  140/  2/  6 1016.2
5 SE WRIGHTSVLE  NOT AVBL
225 S CAPE HAT   0650   78 79   60/ 12/ 16 1014.3   10/11  10/11
41 SE CHARLESTON 0650   81 82   90/ 10/ 14 1014.3    8/11   7/11

$$




USA.gov is the U.S. government's official web portal to all federal, state and local government web resources and services.